Laramie, WY

8:03 AM MDT on April 25, 2017 (GMT -0600)
Laramie Regional

Weather History for KLAR - March, 2014

Change the Weather History Date:

Monday, March 17, 2014

  Actual Average Record
Temperature  
Mean Temperature 39 °F 31 °F  
Max Temperature 54 °F 43 °F 64 °F (2007)
Min Temperature 23 °F 19 °F -14 °F (1958)
Degree Days  
Heating Degree Days 26 34  
Month to date heating degree days 534 608  
Since 1 July heating degree days 6578 6784  
Cooling Degree Days 0 0  
Month to date cooling degree days 0 0  
Year to date cooling degree days 0 0  
Moisture  
Dew Point 17 °F    
Average Humidity 50    
Maximum Humidity 78    
Minimum Humidity 22    
Precipitation  
Precipitation T in 0.03 in 0.47 in (1970)
Month to date precipitation 0.14 0.30  
Year to date precipitation 1.33 0.91  
Sea Level Pressure  
Sea Level Pressure 29.49 in    
Wind  
Wind Speed 22 mph (WSW)    
Max Wind Speed 41 mph    
Max Gust Speed 52 mph    
Visibility 10 miles    
Events Rain , Snow    
T = Trace of Precipitation, MM = Missing Value Source: NWS Daily Summary

Daily Weather History Graph

Daily Weather History Graph

Search for Another Location

Airport or City:

Trip Planner

Search our weather history database for the weather conditions in past years. The results will help you decide how hot, cold, wet, or windy it might be!

Date:

Astronomy

Mar. 17, 2014 Rise Set
Actual Time 7:10 AM MDT 7:11 PM MDT
Civil Twilight 6:43 AM MDT 7:39 PM MDT
Nautical Twilight 6:11 AM MDT 8:11 PM MDT
Astronomical Twilight 5:38 AM MDT 8:44 PM MDT
Moon 8:32 PM MDT (3/17) 7:27 AM MDT (3/17)
Length of Visible Light 12h 55m
Length of Day
12h 00m
Full, 99% of the Moon is Illuminated
Mar 17
Full
Mar 23
Last Quarter
Mar 30
New
Apr 7
First Quarter
Apr 15
Full

Hourly Weather History & Observations

Time (MDT) Temp. Windchill Dew Point Humidity Pressure Visibility Wind Dir Wind Speed Gust Speed Precip Events Conditions
12:53 AM 41.0 °F 30.5 °F 15.1 °F 35% 29.80 in 10.0 mi SW 26.5 mph 34.5 mph N/A   Clear
1:53 AM 41.0 °F 30.9 °F 12.9 °F 32% 29.77 in 10.0 mi WSW 24.2 mph - N/A   Clear
2:53 AM 42.1 °F 32.3 °F 12.9 °F 31% 29.73 in 10.0 mi SW 24.2 mph 35.7 mph N/A   Clear
3:53 AM 39.0 °F 29.6 °F 14.0 °F 36% 29.73 in 10.0 mi SSW 18.4 mph - N/A   Clear
4:53 AM 39.0 °F 28.0 °F 12.9 °F 34% 29.67 in 10.0 mi SSW 25.3 mph 34.5 mph N/A   Clear
5:53 AM 37.9 °F 27.9 °F 15.1 °F 39% 29.65 in 10.0 mi SSW 19.6 mph - N/A   Clear
6:53 AM 37.0 °F 27.0 °F 15.1 °F 41% 29.65 in 10.0 mi SSW 18.4 mph - N/A   Clear
7:53 AM 37.0 °F 28.1 °F 15.1 °F 41% 29.62 in 10.0 mi SSW 15.0 mph - N/A   Clear
8:53 AM 42.1 °F 34.2 °F 15.1 °F 34% 29.54 in 10.0 mi SSW 16.1 mph - N/A   Clear
9:53 AM 45.0 °F 36.2 °F 16.0 °F 31% 29.47 in 10.0 mi SSW 24.2 mph - N/A   Clear
10:53 AM 48.0 °F - 16.0 °F 28% 29.39 in 10.0 mi SW 28.8 mph 39.1 mph N/A   Clear
11:53 AM 51.1 °F - 17.1 °F 26% 29.32 in 10.0 mi SW 29.9 mph 38.0 mph N/A   Clear
12:53 PM 53.1 °F - 16.0 °F 23% 29.25 in 10.0 mi SW 25.3 mph 35.7 mph N/A   Clear
1:53 PM 48.9 °F - 12.9 °F 24% 29.26 in 10.0 mi West 38.0 mph 51.8 mph N/A   Overcast
2:53 PM 51.1 °F - 18.0 °F 27% 29.21 in 10.0 mi West 27.6 mph 36.8 mph N/A   Partly Cloudy
3:26 PM 41.0 °F 30.7 °F 27.0 °F 57% 29.45 in 8.0 mi WNW 25.3 mph 34.5 mph 0.00 in Rain Light Rain
3:53 PM 41.0 °F 31.6 °F 27.0 °F 57% 29.32 in 10.0 mi WNW 20.7 mph 33.4 mph 0.00 in   Overcast
4:53 PM 36.0 °F 23.9 °F 28.9 °F 76% 29.33 in 3.0 mi NNW 25.3 mph 34.5 mph 0.00 in Snow Light Snow
5:53 PM 36.0 °F 25.6 °F 28.0 °F 73% 29.38 in 9.0 mi NW 18.4 mph - 0.00 in   Overcast
6:53 PM 30.0 °F 16.0 °F 24.1 °F 79% 29.44 in 8.0 mi NNW 25.3 mph 32.2 mph 0.00 in   Overcast
7:53 PM 28.9 °F 17.7 °F 18.0 °F 64% 29.46 in 10.0 mi WNW 15.0 mph - N/A   Overcast
8:53 PM 27.0 °F 14.7 °F 18.0 °F 69% 29.46 in 10.0 mi WSW 16.1 mph - N/A   Overcast
9:53 PM 24.1 °F 9.8 °F 12.9 °F 62% 29.45 in 10.0 mi WSW 19.6 mph - N/A   Mostly Cloudy
10:53 PM 24.1 °F 9.4 °F 12.0 °F 60% 29.42 in 10.0 mi WSW 20.7 mph 32.2 mph N/A   Clear
11:53 PM 24.1 °F 11.5 °F 12.0 °F 60% 29.40 in 10.0 mi WSW 15.0 mph 28.8 mph N/A   Overcast